Zurück zum Katalog

COSMOS 385

AktivMilitärLEO
NORAD 4799·PAYLOAD·🇷🇺 Russia

Gestartet Dec 12, 1970 von Plesetsk Cosmodrome

Loading…

Nächste Überflüge (nächste 24 Stunden)

TLE

AktuellSource: Space-Track

Epoche: Sep 14, 2026, 09:50 UTC

1 04799U 70108A   26257.41033179 -.00000013  00000-0  94424-5 0  9998
2 04799  74.0187 241.0240 0003640 182.9453 329.9737 13.76985961800830

Verfolge COSMOS 385 in Echtzeit mit AllMySat

Download on the App Store